Location: The Jewett Observatory
(46.7288°N, 117.1525°W)
Time: 00:01:52
(UTC-07:00)

Cosmos 1633 - Visible Passes

Search period start: 30 July 2014 00:00
Search period end: 09 August 2014 00:00
Orbit: 498 x 520 km, 82.5° (Epoch: 29 July)

Date Brightness Start Highest point End Pass type
(mag) Time Alt. Az. Time Alt. Az. Time Alt. Az.
30 Jul 4.1 00:42:38 31° WNW 00:42:38 31° WNW 00:46:00 10° N visible
30 Jul 4.8 22:50:41 16° ENE 22:50:41 16° ENE 22:52:31 10° NE visible
31 Jul 3.7 00:25:33 39° WNW 00:25:33 39° WNW 00:29:00 10° N visible
31 Jul 5.0 22:33:36 13° ENE 22:33:36 13° ENE 22:34:51 10° ENE visible
01 Aug 3.4 00:08:27 50° WNW 00:08:27 50° WNW 00:11:58 10° N visible
01 Aug 3.0 23:51:20 63° NW 23:51:20 63° NW 23:54:53 10° N visible
02 Aug 2.8 23:34:12 75° N 23:34:12 75° N 23:37:46 10° N visible
03 Aug 2.7 23:17:02 69° ENE 23:17:02 69° ENE 23:20:36 10° NNE visible
04 Aug 5.5 00:52:21 10° WNW 00:52:51 10° WNW 00:53:22 10° WNW visible
04 Aug 2.9 22:59:51 55° ENE 22:59:51 55° ENE 23:03:24 10° NNE visible
05 Aug 5.3 00:34:42 12° W 00:35:35 13° WNW 00:37:22 10° NW visible
05 Aug 3.2 22:42:39 43° E 22:42:39 43° E 22:46:10 10° NNE visible
06 Aug 5.1 00:17:30 15° W 00:18:18 16° WNW 00:20:43 10° NNW visible
06 Aug 3.5 22:25:25 34° E 22:25:25 34° E 22:28:53 10° NNE visible
07 Aug 4.9 00:00:16 18° W 00:01:03 19° WNW 00:03:54 10° NNW visible
07 Aug 3.8 22:08:09 27° E 22:08:15 27° E 22:11:32 10° NNE visible
07 Aug 4.6 23:43:00 22° W 23:43:47 24° WNW 23:46:59 10° NNW visible
08 Aug 4.1 21:50:52 21° E 21:51:09 21° E 21:54:07 10° NE visible
08 Aug 4.3 23:25:43 27° W 23:26:33 30° WNW 23:29:59 10° N visible
